User: anonymous   Login
Location: Berg
(47.2344°N, 9.5296°E)
Time: 14:44:13
(UTC+00:00)
Language:

N. Korean satellite - Orbit

View from above orbital plane
View from above orbital plane
View from above satellite
View from above satellite

Ground track
Ground track

The orbit data is extracted from the following two-line orbital elements,

1 39026U 12072A   21292.89714902  .00005664  00000-0  18796-3 0  9993
2 39026  97.2537 282.8567 0033010 302.3210  57.4836 15.31105129492063
Epoch (UTC): 19 October 2021 21:31:53
Eccentricity: 0.0033010
inclination: 97.2537°
perigee height: 450 km
apogee height: 495 km
right ascension of ascending node: 282.8567°
argument of perigee: 302.3210°
revolutions per day: 15.31105129
mean anomaly at epoch: 57.4836°
orbit number at epoch: 49206

The dashed part of the orbit path shows where the satellite is in the earth's shadow,  

DLR